STARLINK-1716, 46672

Orbit data source: Space-Track

STARLINK-1716, 46672 is a payload satellite owned by SpaceX/Seattle (US) in LEO that was launched on Sun, 18 Oct 2020 UTC via an FALCON 9 launch vehicle from the Air Force Eastern Test Range (AFETR). Payload-class satellites include a variety of spacecraft equipped with specific instruments for various scientific and technological missions. These include communications satellites like Starlink; space stations such as the ISS; scientific satellites like the Hubble; Earth observation satellites from companies like Planet Labs, Umbra, and HawkEye 360; GPS; miniature CubeSats for education and research; and military/defense satellites.

Not visible in the next 10 days
Identifier
46672, 2020-073C
Orbit
LEO
Country
Flag of USUS
Related business
Manufacturer
SpaceX/Seattle
Mission
Partially operational Commercial Communications
Bus & Motor
STARLINK, Unknown motor
Mass
260 kg wet, ~248 kg dry
Launch date (UTC)
2020-10-18 (5 years ago)
Launch vehicle
FALCON 9
Launch site
Air Force Eastern Test Range (AFETR)
Object type
Payload
Rocket body
Debris
Shape & HBR
Box + 1 Pan, 10.1 m
Radar Cross Section
13.562 m², Large (>1 m²)

Expand to show TLE details & history
Last TLE update: 14 hours ago

TLE from 14 hours ago
0 STARLINK-1716
1 46672U 20073C   26107.16004160  .00078641  00000-0  56518-3 0  9995
2 46672  53.0438  11.2893 0008110 114.9444 245.2418 15.72920155303741
Epoch: 2026-04-17T03:50Z
TLE epoch observation values (Epoch: 2026-04-17T03:50:27.594Z)
Latitude
0.00006°
Longitude
108.37714°
Altitude
353.749 km
Speed
7.697 km/s
True Right ascension
00h 45m 09s
True Declination
0° 00' 00"
Sunlit
Object was in daylight at epoch
Visualization orbit readout
Latitude
Unknown
Longitude
Unknown
Altitude
Unknown
Speed
Unknown
Apparent Right ascension
Unknown
Apparent Declination
Unknown
Sunlit
N/A
Visualization observer readout
Local Sidereal Time
00:49:28
Azimuth
Unknown
Elevation
Unknown
Doppler factor
Unknown
Orbital elements
Apogee altitude
356.293 km
Perigee altitude
345.379 km
Semi-major axis
6,728.973 km
Eccentricity
0.00081
Inclination
53.0438°
RAAN
11.2893°
Arg. of periapsis
114.9444°
True anomaly
245.15744°
Mean anomaly
245.2418°
Eccentric anomaly
245.19962°
Mean motion
3.93206 °/min
Orbital period
91.56 mins
BSTAR
0.00056518
Loading maneuver chart data...
Computing Atmospheric mass density...

Documentation

Showing up to 5 results
|